Date,TemperatureHighF,TemperatureAvgF,TemperatureLowF,DewpointHighF,DewpointAvgF,DewpointLowF,HumidityHigh,HumidityAvg,HumidityLow,PressureMaxIn,PressureMinIn,WindSpeedMaxMPH,WindSpeedAvgMPH,GustSpeedMaxMPH,PrecipitationSumIn
2013-2-1,7.0,-3.7,-14.0,-1.0,-11.8,-23.0,71,67,62,30.46,30.14,8,2,16,0.00
2013-2-2,19.0,7.7,0.0,11.0,-0.4,-8.0,74,68,65,30.29,30.02,8,3,23,0.00
2013-2-3,13.0,10.4,6.0,4.0,1.4,-3.0,72,66,61,30.22,30.02,10,4,16,0.00
2013-2-4,26.0,10.3,-3.0,18.0,1.2,-11.0,71,66,54,30.16,29.70,22,4,32,0.00
2013-2-5,34.0,20.0,9.0,24.0,10.5,2.0,73,66,59,30.11,29.71,18,5,27,0.00
2013-2-6,29.0,19.9,8.0,20.0,12.3,1.0,75,72,68,30.11,29.88,7,3,14,0.01
2013-2-7,22.0,19.1,17.0,16.0,12.6,11.0,78,76,73,30.37,30.11,5,2,11,0.01
2013-2-8,25.0,19.0,10.0,17.0,11.9,4.0,77,74,67,30.37,30.07,17,6,31,0.00
2013-2-9,34.0,27.6,19.0,25.0,20.8,13.0,79,75,68,30.07,29.82,8,4,14,0.05
2013-2-10,30.0,26.4,24.0,25.0,20.8,18.0,80,79,79,29.82,29.46,13,9,25,0.01
2013-2-11,24.0,19.9,18.0,18.0,13.4,10.0,79,76,70,30.10,29.67,10,6,24,0.00
2013-2-12,28.0,24.5,17.0,18.0,13.1,9.0,75,62,51,30.06,29.85,17,5,24,0.06
2013-2-13,34.0,30.2,25.0,26.0,20.2,15.0,77,66,57,29.85,29.59,11,5,18,0.08
2013-2-14,26.0,16.3,2.0,19.0,8.0,-7.0,76,69,62,30.35,29.78,7,3,18,0.01
2013-2-15,17.0,7.3,-2.0,7.0,-0.6,-9.0,75,69,59,30.47,30.34,4,1,7,0.00
2013-2-16,17.0,9.9,1.0,10.0,2.6,-6.0,75,72,67,30.35,30.08,8,3,16,0.00
2013-2-17,31.0,21.1,9.0,23.0,14.0,2.0,79,74,68,30.07,29.56,11,5,18,0.01
2013-2-18,34.0,14.8,1.0,26.0,6.3,-7.0,79,68,62,30.16,29.56,12,8,34,0.01
2013-2-19,1.0,-5.1,-12.0,-7.0,-15.1,-21.0,69,61,54,30.60,30.16,9,5,24,0.01
2013-2-20,2.0,-6.6,-17.0,-8.0,-15.5,-25.0,70,65,59,30.62,30.49,7,1,11,0.00
2013-2-21,14.0,5.1,-5.0,5.0,-3.5,-13.0,72,67,58,30.51,30.22,5,1,9,0.00
2013-2-22,21.0,16.4,12.0,10.0,6.6,3.0,74,65,55,30.23,29.98,6,2,13,0.00
2013-2-23,22.0,12.2,2.0,6.0,2.1,-6.0,75,64,48,30.02,29.93,4,1,8,0.00
2013-2-24,22.0,12.1,1.0,12.0,4.3,-6.0,75,70,62,30.16,30.02,6,2,10,0.00
2013-2-25,23.0,18.8,11.0,16.0,12.2,5.0,78,75,71,30.18,30.09,6,2,10,0.00
2013-2-26,22.0,18.9,15.0,16.0,12.9,9.0,78,77,76,30.12,30.06,4,1,11,0.00
2013-2-27,27.0,21.4,14.0,19.0,13.8,8.0,77,72,66,30.22,30.10,10,4,22,0.00
2013-2-28,26.0,21.6,17.0,16.0,13.1,8.0,74,70,59,30.35,30.22,5,2,14,0.00